Wind_Speed
12 11 8 6 7 9 11 10 11 15 15 16 17 18 17 16 16 17 17 15 12 11 9 12 14 15 15 16 16 16 15 14 13 12 11 9 7 6 5 4 4 3 3 3
12 10 8 8 10 11 10 11 13 15 16 16 16 15 15 15 16 16 15 13 10 8 8 10 11 12 13 14 14 14 14 13 12 11 9 9 8 6 5 3 2 2 2 2
12 9 9 10 11 11 11 12 14 15 15 15 16 15 14 15 15 15 13 11 10 7 6 6 8 9 12 13 13 13 12 12 12 11 9 9 7 6 5 3 2 1 1 2
13 12 13 14 13 12 13 13 14 14 14 14 13 15 13 14 14 14 12 10 8 5 5 6 7 9 10 10 11 12 12 12 12 10 9 8 7 6 4 3 2 1 0 1
13 13 15 16 15 14 15 15 14 13 13 14 14 15 13 12 14 12 12 9 6 4 5 6 7 9 9 10 11 12 12 11 10 10 9 8 7 6 4 4 2 1 1 1
17 16 16 16 16 16 15 15 14 13 14 16 11 12 12 12 13 12 10 8 5 4 5 5 6 8 10 10 11 11 10 10 10 10 9 8 7 6 5 4 3 1 0 1
18 18 18 18 17 15 13 13 14 15 14 11 7 8 10 11 12 11 9 6 3 3 4 5 6 7 9 10 10 10 10 10 9 9 9 8 7 6 5 4 3 2 2 2
17 18 18 19 18 17 14 13 14 15 13 12 9 9 9 10 9 9 7 5 2 2 4 5 6 7 8 8 9 9 10 10 9 10 9 8 7 7 5 4 3 3 3 4
19 20 19 20 19 18 17 15 14 15 12 12 12 12 11 8 7 7 6 4 3 3 5 5 6 7 8 8 8 8 9 9 9 9 9 8 7 6 5 5 4 4 5 6
22 24 21 21 21 18 17 15 15 15 15 13 13 14 12 7 7 7 6 4 4 4 5 6 6 7 7 8 7 8 8 9 8 9 9 8 7 6 6 6 6 6 7 8
25 26 24 22 22 18 18 17 17 16 15 15 16 14 11 9 8 8 6 5 4 5 5 6 7 8 8 8 7 7 8 8 8 8 8 8 8 8 7 7 8 8 9 11
28 28 28 26 22 20 20 19 19 18 16 14 15 15 10 9 8 8 7 7 6 6 6 6 7 8 8 8 8 8 8 8 8 8 8 8 8 8 8 9 9 10 12 13
29 29 29 28 25 22 22 20 18 18 16 14 14 18 15 12 10 10 9 9 8 8 8 7 7 8 8 9 9 9 9 9 9 9 9 9 9 10 10 10 11 12 14 14
30 30 30 27 27 25 23 22 20 18 17 14 14 18 16 13 11 11 11 11 10 10 9 9 9 9 9 10 10 11 11 11 10 10 10 10 10 10 11 12 13 14 15 15
30 30 29 28 26 25 21 19 19 18 16 16 16 19 17 14 11 12 13 12 11 11 10 11 11 10 11 11 11 11 12 12 12 12 11 11 11 12 12 13 14 15 16 16
30 28 27 29 26 24 21 18 16 15 15 16 16 17 18 16 13 14 13 13 12 12 12 12 12 12 12 12 12 12 12 13 13 13 13 12 13 13 14 15 16 17 17 18
26 28 29 27 24 25 24 19 15 15 16 16 17 18 18 16 15 15 15 15 14 14 13 13 13 13 13 13 13 13 13 13 14 14 14 14 14 15 16 17 18 18 19 20
26 26 26 25 26 26 21 17 17 19 18 19 19 20 20 19 17 16 17 17 16 15 14 13 13 13 13 13 14 14 14 15 15 16 16 16 16 17 18 19 19 20 21 22
26 27 27 26 26 25 21 20 20 20 19 19 19 20 21 21 19 18 18 17 17 16 15 14 14 14 14 14 14 15 15 16 17 17 17 18 18 18 19 20 21 22 23 23
22 24 27 28 27 25 21 20 21 19 19 20 22 22 22 21 19 19 18 17 17 16 16 16 16 15 15 15 15 16 16 17 18 18 19 19 19 20 21 22 23 24 24 25
24 26 28 28 28 25 24 22 21 20 20 21 21 21 22 22 20 20 19 17 18 18 18 18 17 17 17 17 17 18 18 19 19 20 20 21 21 22 23 24 25 25 25 26
24 25 26 28 29 27 26 24 22 19 19 21 22 22 21 21 21 21 21 20 19 19 19 20 20 19 19 20 20 20 20 20 21 21 21 22 23 24 24 25 26 27 27 28
21 22 23 26 28 28 26 24 22 19 19 20 22 22 22 21 22 22 22 21 21 22 22 22 22 22 22 22 22 21 21 21 22 23 24 24 25 26 26 27 28 28 28 29
24 24 24 26 26 28 27 26 24 20 21 22 22 22 22 22 22 22 22 22 23 23 24 24 24 24 24 25 25 24 23 24 24 25 26 27 27 28 28 29 29 29 30 31
22 23 24 26 26 22 22 22 21 21 21 21 22 22 23 22 22 22 22 22 23 24 24 26 26 26 26 27 26 26 26 26 27 27 28 28 29 30 30 30 31 31 32 32
21 22 23 23 23 22 22 20 18 18 18 20 22 23 23 23 23 23 23 23 24 24 24 25 26 27 27 27 28 29 29 29 29 30 30 30 31 32 32 32 32 33 34 34
Wind_Direction
265 265 271 275 274 270 275 276 277 278 283 294 301 305 309 312 311 309 307 302 294 284 262 238 235 238 237 233 232 229 226 225 226 232 237 239 235 242 251 248 253 280 300 308
258 260 259 248 252 257 260 270 276 280 290 294 299 304 307 312 313 313 311 306 297 279 261 240 234 237 233 228 228 219 218 219 221 226 225 222 223 226 226 220 243 264 307 330
250 248 253 256 254 257 263 272 278 285 293 300 304 304 307 317 319 313 313 308 298 280 261 239 230 227 223 223 215 209 207 210 216 214 212 211 212 216 218 216 219 242 309 340
240 232 239 249 253 257 264 270 277 282 292 295 295 293 296 314 322 319 316 312 301 283 248 225 213 210 208 209 204 199 201 208 214 213 209 209 209 217 214 188 187 185 34 12
234 231 236 244 250 255 262 265 270 275 277 279 283 289 299 313 324 324 323 315 291 267 235 218 200 196 200 200 199 199 200 204 204 203 204 206 205 201 186 173 169 151 78 23
230 231 239 247 251 255 260 266 265 267 271 272 288 295 303 325 326 323 324 320 288 247 225 206 194 197 197 194 195 195 196 196 197 199 200 197 191 184 176 174 171 169 1 348
230 227 231 238 247 252 255 264 275 285 294 289 303 288 299 322 323 321 321 318 295 235 208 199 192 190 191 189 189 190 191 194 197 198 195 194 195 196 187 188 202 231 285 310
235 233 231 236 242 250 255 262 270 285 306 318 304 282 292 312 313 312 311 304 280 216 184 179 179 177 178 180 184 188 191 196 197 199 198 197 201 200 198 208 232 262 288 300
231 241 234 235 233 239 251 256 262 275 286 291 284 288 282 287 307 312 306 293 258 214 186 178 175 173 181 186 186 186 188 191 197 199 199 198 204 207 213 227 249 276 290 298
225 240 241 240 236 232 242 251 256 262 267 272 272 273 268 294 312 315 300 283 256 221 200 196 190 185 185 188 190 192 189 189 195 198 200 204 208 219 231 245 264 281 292 298
228 234 240 238 234 230 237 240 245 254 255 265 282 284 286 295 301 301 285 266 248 229 212 206 206 202 200 197 196 199 202 205 206 206 208 215 223 233 244 257 271 283 290 296
229 232 238 237 234 232 231 235 242 252 254 255 270 278 274 282 288 286 274 260 248 238 229 219 212 209 209 210 209 209 212 215 215 216 222 228 235 243 253 265 275 283 289 295
228 230 235 236 235 233 233 236 239 250 255 255 262 275 280 278 275 275 267 259 249 242 238 232 222 219 220 220 221 220 222 222 223 226 233 238 245 252 261 271 278 284 290 295
228 230 234 237 237 236 234 232 233 241 247 252 252 264 269 263 255 264 264 259 249 243 240 238 232 227 228 229 228 229 229 230 231 236 241 246 252 258 268 276 282 288 292 294
230 232 236 237 240 245 245 238 231 236 242 248 248 257 260 256 249 257 260 258 249 245 242 238 235 233 232 231 232 234 234 235 238 244 248 251 256 264 273 280 284 288 292 294
231 231 233 237 238 249 254 245 237 236 240 245 247 258 261 263 255 252 254 254 250 246 246 241 237 236 237 236 237 240 241 241 245 249 253 257 263 270 276 281 286 288 291 293
231 228 231 235 236 245 247 249 242 237 242 244 245 247 257 256 251 251 250 250 249 248 246 243 241 240 241 243 244 246 247 249 251 254 258 263 268 273 278 281 285 288 290 294
231 233 232 233 233 238 236 238 242 238 238 242 243 246 250 251 253 254 251 247 248 247 245 244 243 243 245 247 250 252 254 255 256 258 263 267 271 276 279 282 285 287 290 293
234 234 235 233 237 237 232 231 231 238 238 237 240 242 247 248 249 249 247 246 246 244 244 246 248 250 251 252 254 256 257 259 261 264 266 269 272 277 280 283 285 287 289 292
236 233 234 234 238 236 234 232 229 232 237 236 239 242 245 247 247 248 249 245 242 241 245 248 252 254 255 257 259 260 261 262 265 268 270 272 274 277 280 284 286 287 289 292
235 232 233 234 236 240 241 235 228 226 231 237 241 244 246 248 247 250 251 246 244 244 247 253 258 260 261 262 265 265 264 265 268 271 272 273 274 276 280 282 285 287 289 290
235 232 231 231 231 237 240 233 230 233 235 240 244 245 247 249 251 252 249 246 246 248 251 256 260 263 264 264 266 267 266 267 269 271 272 273 275 277 280 282 285 286 288 289
239 235 232 231 233 237 239 237 238 233 234 238 244 247 250 251 252 253 251 249 248 249 252 255 259 263 265 266 266 267 267 268 270 272 273 275 278 280 282 284 285 286 288 289
235 236 236 235 237 237 236 236 236 235 236 241 245 249 251 253 253 253 253 251 251 252 253 257 260 263 265 266 263 264 266 269 272 275 276 277 279 281 282 285 286 287 289 289
235 236 238 238 241 240 238 237 237 237 238 241 244 247 251 254 255 255 256 256 256 258 259 259 260 263 265 265 263 264 266 269 272 276 279 280 280 280 282 283 286 288 290 291
241 239 239 243 246 246 243 237 238 238 241 242 244 247 251 255 257 258 260 259 259 261 263 262 263 265 267 267 265 266 267 269 272 275 277 278 279 279 280 283 285 287 288 289
Height
5857 5859 5860 5861 5863 5864 5865 5865 5866 5864 5860 5858 5856 5853 5850 5847 5845 5841 5838 5835 5833 5832 5831 5833 5836 5838 5840 5843 5846 5848 5850 5853 5856 5859 5861 5863 5864 5866 5867 5868 5869 5869 5870 5870
5854 5856 5858 5859 5860 5862 5862 5862 5862 5860 5858 5856 5853 5851 5848 5845 5842 5839 5836 5834 5832 5831 5831 5832 5834 5836 5838 5841 5843 5846 5849 5852 5854 5857 5859 5861 5863 5865 5866 5867 5868 5868 5869 5869
5851 5854 5855 5856 5858 5859 5860 5860 5858 5857 5855 5853 5851 5848 5845 5843 5841 5838 5835 5833 5831 5830 5830 5831 5832 5834 5836 5839 5842 5845 5848 5851 5853 5856 5858 5860 5862 5864 5865 5866 5867 5868 5868 5869
5848 5851 5853 5854 5855 5856 5856 5856 5855 5854 5852 5850 5849 5845 5843 5841 5839 5836 5834 5832 5830 5829 5829 5830 5832 5833 5836 5838 5841 5844 5847 5850 5852 5855 5857 5859 5861 5863 5865 5866 5867 5868 5868 5869
5845 5847 5849 5851 5852 5853 5853 5853 5852 5851 5849 5847 5845 5842 5840 5838 5837 5835 5833 5831 5830 5829 5830 5830 5832 5833 5835 5838 5840 5843 5846 5848 5851 5854 5856 5859 5860 5862 5864 5866 5867 5868 5868 5868
5841 5844 5846 5848 5849 5849 5850 5849 5848 5846 5844 5842 5841 5839 5837 5837 5836 5835 5833 5831 5829 5829 5830 5830 5831 5833 5835 5837 5840 5842 5845 5848 5851 5853 5855 5858 5860 5862 5864 5865 5866 5867 5868 5868
5836 5839 5842 5844 5845 5846 5846 5846 5844 5842 5840 5837 5839 5838 5836 5836 5836 5834 5833 5831 5830 5830 5830 5831 5832 5834 5836 5838 5840 5842 5845 5847 5850 5852 5855 5857 5859 5861 5863 5865 5866 5867 5867 5867
5833 5836 5838 5840 5842 5843 5843 5843 5843 5841 5839 5837 5835 5835 5836 5835 5835 5834 5833 5832 5831 5831 5831 5832 5833 5834 5837 5839 5840 5842 5845 5847 5849 5852 5854 5856 5859 5860 5862 5864 5865 5866 5866 5866
5829 5831 5833 5834 5836 5838 5839 5839 5840 5839 5838 5837 5836 5834 5831 5832 5833 5833 5832 5832 5832 5832 5832 5833 5834 5835 5837 5839 5841 5842 5844 5846 5848 5850 5853 5855 5858 5859 5861 5863 5864 5864 5865 5865
5823 5825 5827 5829 5831 5833 5836 5837 5837 5836 5835 5835 5834 5831 5828 5829 5830 5832 5832 5832 5832 5832 5833 5834 5835 5836 5838 5839 5841 5842 5844 5846 5848 5850 5852 5854 5856 5858 5860 5861 5862 5863 5863 5863
5818 5820 5822 5823 5825 5828 5831 5832 5832 5832 5833 5833 5831 5830 5826 5828 5829 5831 5832 5832 5832 5832 5833 5834 5835 5836 5838 5839 5840 5842 5844 5845 5847 5849 5851 5854 5855 5857 5858 5860 5860 5861 5861 5861
5813 5815 5815 5818 5820 5822 5823 5826 5828 5829 5829 5829 5829 5829 5825 5827 5827 5830 5831 5831 5832 5832 5833 5834 5835 5836 5837 5839 5840 5842 5843 5845 5847 5849 5851 5852 5854 5855 5857 5857 5858 5858 5858 5858
5804 5807 5810 5812 5817 5817 5818 5821 5823 5825 5825 5826 5827 5827 5824 5825 5826 5827 5829 5830 5831 5831 5832 5833 5834 5835 5837 5838 5839 5841 5842 5844 5846 5848 5849 5851 5852 5853 5854 5855 5855 5855 5855 5855
5798 5801 5804 5807 5808 5809 5811 5815 5817 5820 5821 5823 5824 5823 5822 5821 5823 5825 5827 5828 5829 5830 5831 5832 5833 5834 5835 5837 5838 5840 5841 5843 5844 5846 5847 5848 5849 5850 5851 5852 5852 5852 5851 5851
5792 5795 5798 5801 5802 5803 5805 5808 5811 5814 5817 5819 5819 5817 5817 5816 5819 5823 5824 5825 5827 5828 5828 5830 5831 5832 5834 5835 5836 5838 5839 5841 5842 5843 5844 5845 5846 5847 5848 5848 5848 5848 5848 5847
5785 5788 5792 5795 5798 5799 5800 5802 5805 5809 5812 5814 5815 5815 5814 5814 5816 5819 5821 5823 5824 5825 5826 5827 5828 5830 5831 5832 5834 5835 5836 5838 5839 5840 5841 5842 5843 5843 5844 5844 5844 5844 5843 5842
5778 5782 5786 5790 5793 5794 5796 5800 5802 5805 5807 5810 5811 5813 5812 5812 5814 5816 5818 5820 5821 5822 5823 5824 5826 5827 5828 5830 5831 5832 5834 5835 5835 5837 5838 5838 5839 5840 5840 5840 5840 5839 5838 5838
5774 5777 5780 5785 5788 5789 5795 5796 5798 5800 5803 5805 5807 5808 5809 5809 5811 5813 5815 5816 5818 5819 5820 5821 5823 5824 5825 5827 5828 5829 5830 5831 5832 5833 5833 5834 5835 5835 5835 5835 5835 5834 5833 5832
5770 5773 5776 5779 5781 5784 5788 5790 5793 5795 5797 5799 5801 5803 5805 5806 5807 5809 5810 5812 5814 5815 5817 5818 5819 5821 5822 5823 5824 5825 5826 5827 5828 5828 5829 5830 5830 5830 5830 5829 5829 5828 5827 5826
5764 5767 5772 5774 5776 5778 5782 5784 5786 5790 5790 5793 5796 5798 5800 5801 5803 5805 5806 5808 5810 5812 5813 5815 5816 5817 5818 5819 5820 5821 5822 5823 5823 5823 5824 5824 5824 5824 5824 5823 5823 5822 5821 5819
5760 5762 5766 5769 5771 5773 5776 5778 5781 5784 5787 5788 5790 5792 5794 5796 5798 5801 5802 5804 5806 5808 5809 5810 5811 5813 5814 5815 5816 5817 5817 5818 5818 5818 5818 5818 5818 5818 5817 5817 5816 5815 5814 5813
5754 5757 5760 5764 5766 5770 5770 5772 5775 5776 5779 5783 5785 5787 5789 5791 5793 5795 5797 5799 5801 5803 5804 5806 5807 5808 5809 5810 5810 5811 5812 5812 5812 5812 5812 5812 5812 5811 5810 5810 5809 5808 5806 5805
5749 5752 5754 5759 5762 5764 5764 5766 5768 5770 5773 5776 5779 5781 5784 5786 5788 5790 5792 5794 5796 5798 5799 5800 5801 5802 5803 5803 5804 5805 5806 5805 5806 5806 5806 5805 5805 5804 5803 5803 5801 5800 5799 5797
5744 5747 5749 5752 5754 5756 5758 5761 5763 5765 5768 5772 5774 5777 5779 5780 5782 5784 5786 5788 5790 5791 5793 5794 5795 5796 5797 5797 5797 5797 5798 5798 5799 5799 5798 5798 5797 5796 5796 5794 5793 5792 5790 5789
5740 5742 5744 5747 5748 5749 5752 5755 5758 5760 5763 5766 5769 5771 5773 5774 5776 5778 5780 5781 5783 5784 5786 5787 5788 5789 5790 5790 5790 5790 5791 5791 5791 5790 5790 5789 5788 5788 5787 5786 5785 5783 5782 5780
5736 5738 5740 5742 5743 5745 5748 5750 5752 5755 5757 5760 5763 5765 5767 5768 5770 5771 5773 5775 5776 5778 5779 5780 5780 5781 5782 5782 5782 5783 5783 5783 5783 5782 5782 5781 5780 5779 5778 5777 5776 5774 5773 5771